CAPE
2 3 12 12 13 12 12 12 10 5 4 6 6 1 0 0 0 0 0 0 3 3
0 4 10 13 5 1 1 13 7 10 10 6 0 0 0 0 0 0 0 0 0 0
3 5 8 0 0 0 0 0 0 0 1 0 0 0 0 0 0 0 3 3 0 0
6 8 7 1 0 0 0 0 0 0 0 0 0 0 0 0 0 0 0 0 1 0
1 0 1 0 0 0 0 0 0 0 0 0 0 0 0 0 0 0 0 0 0 0
0 0 0 0 0 0 0 0 0 0 0 0 0 0 0 0 0 0 0 0 0 0
0 0 0 0 0 0 0 0 0 0 0 0 0 0 0 0 0 0 0 0 0 0
0 0 0 0 0 0 0 0 0 0 0 0 0 0 0 0 0 0 0 0 0 0
0 0 0 0 0 0 0 0 0 0 0 0 0 0 0 0 0 0 0 0 0 3
0 0 0 0 0 0 0 0 0 0 0 0 0 0 0 0 0 0 0 0 0 0
0 0 0 0 0 0 0 0 0 0 0 0 0 0 0 0 0 0 0 0 0 0
0 0 0 0 0 0 0 0 0 0 0 0 0 0 0 0 0 0 0 0 0 0
0 0 0 0 0 0 0 0 0 0 0 0 0 0 0 0 0 0 0 0 0 0
0 0 0 0 0 0 0 0 0 0 0 0 0 0 0 0 0 0 0 0 0 0
CIN
-0 -0 -0 -0 -0 -0 -0 -0 -0 -0 -0 -0 -0 -1 -0 -0 -0 -0 -0 -0 -0 -0
-0 -0 -0 -0 -3 -10 -11 -0 -0 -0 -0 -0 -1 -0 -0 -0 -0 -0 -0 -0 -0 -0
-0 -0 -1 -23 -0 -0 -0 -0 -0 -0 -1 -0 -0 -0 -0 -0 -0 -0 -0 -0 -0 -0
-0 -0 -4 -3 -0 -0 -0 -0 -0 -0 -0 -0 -0 -0 -0 -0 -0 -0 -0 -0 -1 -0
-0 -0 -0 -0 -0 -0 -0 -0 -0 -0 -0 -0 -0 -0 -0 -0 -0 -0 -0 -0 -0 -0
-0 -0 -0 -0 -0 -0 -0 -0 -0 -0 -0 -0 -0 -0 -0 -0 -0 -0 -0 -0 -0 -0
-0 -0 -0 -0 -0 -0 -0 -0 -0 -0 -0 -0 -0 -0 -0 -0 -0 -0 -0 -0 -0 -0
-0 -0 -0 -0 -0 -0 -0 -0 -0 -0 -0 -0 -0 -0 -0 -0 -0 -0 -0 -0 -0 -0
-0 -0 -0 -0 -0 -0 -0 -0 -0 -0 -0 -0 -0 -0 -0 -0 -0 -0 -0 -0 -0 -38
-0 -0 -0 -0 -0 -0 -0 -0 -0 -0 -0 -0 -0 -0 -0 -0 -0 -0 -0 -0 -0 -0
-0 -0 -0 -0 -0 -0 -0 -0 -0 -0 -0 -0 -0 -0 -0 -0 -0 -0 -0 -0 -0 -0
-0 -0 -0 -0 -0 -0 -0 -0 -0 -0 -0 -0 -0 -0 -0 -0 -0 -0 -0 -0 -0 -0
-0 -0 -0 -0 -0 -0 -0 -0 -0 -0 -0 -0 -0 -0 -0 -0 -0 -0 -0 -0 -0 -0
-0 -0 -0 -0 -0 -0 -0 -0 -0 -0 -0 -0 -0 -0 -0 -0 -0 -0 -0 -0 -0 -0
Wind_Speed
30 29 28 28 28 28 27 25 24 23 23 23 24 25 25 26 27 27 27 28 28 27
29 28 27 27 26 26 26 24 23 22 23 24 25 26 26 27 28 28 28 28 29 28
26 25 24 24 25 25 24 24 22 23 24 25 26 27 28 28 28 28 28 28 29 30
25 22 22 22 23 23 22 21 23 25 25 25 26 28 29 29 29 29 29 29 30 31
22 19 19 19 20 20 21 23 25 26 26 26 26 27 28 29 29 30 30 31 31 32
21 17 15 15 17 20 22 24 26 27 28 28 28 25 26 27 28 29 29 30 31 31
12 12 11 11 14 19 24 26 28 29 28 28 28 27 26 27 28 29 30 30 30 30
10 8 9 9 9 13 19 23 26 29 28 29 29 29 29 28 29 30 31 31 30 30
10 9 7 6 6 12 15 20 23 29 27 26 27 30 31 31 29 29 29 29 29 29
11 10 10 9 8 14 18 19 23 26 27 27 28 32 32 31 28 29 29 29 30 31
10 9 11 13 13 22 22 21 21 23 24 26 28 31 33 32 29 29 30 30 31 32
12 16 18 19 21 23 23 22 22 22 22 25 27 31 31 30 30 31 31 30 30 33
20 22 23 24 25 21 21 21 21 21 21 23 26 28 30 30 29 31 30 31 32 32
18 19 21 22 22 22 22 23 23 21 21 22 24 25 28 29 28 29 30 31 32 32
Wind_Direction
355 355 355 354 353 353 353 354 349 353 359 2 7 6 5 4 3 2 1 358 356 354
359 1 1 359 2 5 3 359 360 4 5 9 9 11 12 9 6 6 5 5 4 3
6 6 6 2 2 0 358 359 355 0 10 17 18 14 11 10 9 9 10 8 5 2
4 1 1 1 358 355 353 350 0 11 16 17 16 16 15 15 16 16 16 13 10 8
2 352 346 344 344 343 346 355 2 5 11 16 18 18 20 20 20 18 16 14 12 9
356 332 321 322 330 344 356 360 3 8 11 12 18 26 25 22 18 16 15 12 8 6
292 288 278 273 307 335 6 15 14 12 23 25 24 23 24 21 18 14 10 8 8 5
151 196 238 251 227 92 59 45 34 27 29 24 26 25 22 19 13 10 9 7 7 6
146 159 179 197 149 100 80 56 43 26 32 35 32 22 17 15 14 13 11 9 8 7
133 137 124 124 266 87 63 53 40 35 36 36 31 20 17 16 18 15 14 13 9 7
130 142 116 98 86 43 44 46 45 40 40 35 29 21 20 21 22 20 18 15 12 9
121 92 78 65 56 42 44 45 45 44 42 35 29 24 23 24 23 20 19 18 16 12
46 42 43 39 42 60 57 53 49 46 42 36 31 27 25 24 24 22 21 20 18 17
38 46 40 42 51 55 53 48 45 44 41 37 32 29 26 25 26 24 22 21 20 19